Location: Newark
(35.6799°N, 139.7636°E)
Time: 15:32:07
(UTC+00:00)

Vanguard 3 - Pass Details

Date: 15 December 2019
Orbit: 507 x 3263 km, 33.4° (Epoch: 21 January)

Event Time Altitude Azimuth Distance (km) Brightness Sun altitude
Rises 21:05:14 0° 243° (WSW) 3,020 9.7 -7.8°
Reaches altitude 10° 21:07:12 10° 238° (WSW) 2,287 9.1 -7.5°
Maximum altitude 21:12:23 57° 160° (SSE) 1,214 8.3 -6.5°
Drops below altitude 10° 21:21:27 10° 85° (E) 3,908 11.7 -4.8°
Sets 21:25:47 0° 82° (E) 5,379 12.4 -4.0°
